Location: Bagnara
(41.0500°N, 14.7833°E)
Time: 19:38:25
(UTC+00:00)

YAOGAN-30 M - Visible Passes

Search period start: 24 January 2022 00:00
Search period end: 03 February 2022 00:00
Orbit: 596 x 599 km, 35.0° (Epoch: 24 January)

Date Brightness Start Highest point End Pass type
(mag) Time Alt. Az. Time Alt. Az. Time Alt. Az.
24 Jan ? 04:12:33 37° S 04:12:40 37° S 04:16:47 10° ESE visible
25 Jan ? 04:21:17 32° SSW 04:21:45 33° S 04:25:46 10° SE visible
26 Jan ? 04:30:01 26° SSW 04:30:49 28° SSW 04:34:36 10° SE visible
27 Jan ? 03:02:12 11° ESE 03:02:12 11° ESE 03:02:20 10° ESE visible
27 Jan ? 04:38:47 20° SW 04:39:49 21° SSW 04:43:12 10° SSE visible
28 Jan ? 03:11:00 11° SE 03:11:00 11° SE 03:11:18 10° SE visible
28 Jan ? 04:47:35 14° SW 04:48:47 15° SSW 04:51:21 10° S visible
29 Jan ? 03:19:50 11° SE 03:19:50 11° SE 03:20:05 10° SE visible
